,,,PA_Meas_PMT16A,,PR_Meas_QMR101_102,,RH_Meas_QMH101,,SR_Meas_QMS101,,TA_Meas_QMH101,,GenWind,,GenWind,
date,time,status,PA,status,PR,status,RH,status,SR,status,TA,status,DirAvg,status,SpdAvg,
2009-07-18, 00:00:04,VALID,1001.04,VALID,0,VALID,87.6491,VALID,0,VALID,23.9159,VALID,90,VALID,0.462891,
2009-07-18, 00:01:04,VALID,1001.03,VALID,0,VALID,87.7864,VALID,0,VALID,23.9354,VALID,96,VALID,0.423047,
2009-07-18, 00:02:04,VALID,1001.02,VALID,0,VALID,87.8932,VALID,0,VALID,23.9549,VALID,96,VALID,0.496094,
2009-07-18, 00:03:04,VALID,1001.05,VALID,0,VALID,87.6796,VALID,0,VALID,23.9531,VALID,96,VALID,0.397266,
2009-07-18, 00:04:04,VALID,1001.07,VALID,0,VALID,87.2752,VALID,0,VALID,23.9744,VALID,96,VALID,0.329297,
2009-07-18, 00:05:04,VALID,1001.05,VALID,0,VALID,87.115,VALID,0,VALID,23.9744,VALID,96,VALID,0.225,
2009-07-18, 00:06:04,VALID,1001.02,VALID,0,VALID,86.97,VALID,0,VALID,23.9726,VALID,96,VALID,0.0695312,
2009-07-18, 00:07:04,VALID,1001.01,VALID,0,VALID,86.8937,VALID,0,VALID,23.9939,VALID,96,VALID,0.166797,
2009-07-18, 00:08:04,VALID,1001.01,VALID,0,VALID,86.8785,VALID,0,VALID,23.9939,VALID,96,VALID,0.108203,
2009-07-18, 00:09:04,VALID,1000.97,VALID,0,VALID,86.8098,VALID,0,VALID,23.9939,VALID,96,VALID,0.114063,
2009-07-18, 00:10:04,VALID,1000.93,VALID,0,VALID,86.6572,VALID,0.112286,VALID,23.9726,VALID,96,VALID,0.0210938,
2009-07-18, 00:11:04,VALID,1000.94,VALID,0,VALID,86.4741,VALID,0,VALID,23.9744,VALID,96,VALID,0.111719,
2009-07-18, 00:12:04,VALID,1000.89,VALID,0,VALID,86.4589,VALID,0,VALID,23.9744,VALID,96,VALID,0,
2009-07-18, 00:13:04,VALID,1000.83,VALID,0,VALID,86.4054,VALID,0,VALID,23.9957,VALID,96,VALID,0.34375,
2009-07-18, 00:14:04,VALID,1000.82,VALID,0,VALID,86.4817,VALID,0,VALID,23.9762,VALID,96,VALID,0.0589844,
2009-07-18, 00:15:04,VALID,1000.8,VALID,0,VALID,86.6343,VALID,0,VALID,23.9567,VALID,96,VALID,0.206641,
2009-07-18, 00:16:04,VALID,1000.76,VALID,0,VALID,86.7946,VALID,0,VALID,23.9177,VALID,96,VALID,0.407813,
2009-07-18, 00:17:04,VALID,1000.72,VALID,0,VALID,86.9472,VALID,0,VALID,23.9177,VALID,97,VALID,0.362109,
2009-07-18, 00:18:04,VALID,1000.7,VALID,0,VALID,87.1379,VALID,0,VALID,23.9177,VALID,98,VALID,0.482422,
2009-07-18, 00:19:04,VALID,1000.66,VALID,0,VALID,86.9929,VALID,0,VALID,23.9354,VALID,99,VALID,0.527344,
2009-07-18, 00:20:04,VALID,1000.6,VALID,0,VALID,86.6954,VALID,0,VALID,23.9549,VALID,101,VALID,0.716016,
2009-07-18, 00:21:04,VALID,1000.62,VALID,0,VALID,86.7183,VALID,0,VALID,24.0329,VALID,103,VALID,0.6625,
2009-07-18, 00:22:04,VALID,1000.6,VALID,0,VALID,86.6038,VALID,0,VALID,24.072,VALID,103,VALID,0.643359,
2009-07-18, 00:23:04,VALID,1000.57,VALID,0,VALID,86.8174,VALID,0,VALID,24.1128,VALID,103,VALID,0.690625,
2009-07-18, 00:24:04,VALID,1000.55,VALID,0,VALID,87.4126,VALID,0,VALID,24.1305,VALID,103,VALID,0.710156,
2009-07-18, 00:25:04,VALID,1000.55,VALID,0,VALID,87.3897,VALID,0,VALID,24.1305,VALID,103,VALID,0.736719,
2009-07-18, 00:26:04,VALID,1000.53,VALID,0,VALID,87.6033,VALID,0,VALID,24.111,VALID,103,VALID,0.765234,
2009-07-18, 00:27:04,VALID,1000.53,VALID,0,VALID,87.733,VALID,0,VALID,24.1128,VALID,103,VALID,0.594531,
2009-07-18, 00:28:04,VALID,1000.51,VALID,0,VALID,87.8398,VALID,0,VALID,24.0933,VALID,103,VALID,0.617969,
2009-07-18, 00:29:04,VALID,1000.48,VALID,0,VALID,87.8932,VALID,0,VALID,24.0738,VALID,103,VALID,0.457812,
2009-07-18, 00:30:04,VALID,1000.5,VALID,0,VALID,87.8398,VALID,0,VALID,24.0329,VALID,103,VALID,0.385547,
2009-07-18, 00:31:04,VALID,1000.51,VALID,0,VALID,87.8169,VALID,0,VALID,24.0134,VALID,103,VALID,0.369141,
2009-07-18, 00:32:04,VALID,1000.48,VALID,0,VALID,87.5346,VALID,0,VALID,24.0153,VALID,103,VALID,0.413672,
2009-07-18, 00:33:04,VALID,1000.47,VALID,0,VALID,87.4126,VALID,0,VALID,23.9549,VALID,10,VALID,0.516406,
2009-07-18, 00:34:04,VALID,1000.47,VALID,0,VALID,87.5346,VALID,0,VALID,23.9549,VALID,10,VALID,0.652344,
2009-07-18, 00:35:04,VALID,1000.47,VALID,0,VALID,87.5423,VALID,0,VALID,23.9549,VALID,357,VALID,0.603125,
2009-07-18, 00:36:04,VALID,1000.46,VALID,0,VALID,87.5117,VALID,0,VALID,23.9567,VALID,357,VALID,0.6875,
2009-07-18, 00:37:04,VALID,1000.45,VALID,0,VALID,87.321,VALID,0,VALID,23.9354,VALID,357,VALID,0.821875,
2009-07-18, 00:38:04,VALID,1000.44,VALID,0,VALID,87.2294,VALID,0,VALID,23.8768,VALID,357,VALID,0.879687,
2009-07-18, 00:39:04,VALID,1000.42,VALID,0,VALID,87.3134,VALID,0,VALID,23.8591,VALID,357,VALID,0.645703,
2009-07-18, 00:40:04,VALID,1000.46,VALID,0,VALID,87.3668,VALID,0,VALID,23.8396,VALID,5,VALID,0.732031,
2009-07-18, 00:41:04,VALID,1000.48,VALID,0,VALID,87.26,VALID,0,VALID,23.7793,VALID,5,VALID,0.578125,
2009-07-18, 00:42:04,VALID,1000.46,VALID,0,VALID,87.6186,VALID,0,VALID,23.7402,VALID,5,VALID,0.648438,
2009-07-18, 00:43:04,VALID,1000.48,VALID,0,VALID,87.7711,VALID,0,VALID,23.7012,VALID,5,VALID,0.652734,
2009-07-18, 00:44:04,VALID,1000.48,VALID,0,VALID,87.8856,VALID,0,VALID,23.6622,VALID,11,VALID,0.70625,
2009-07-18, 00:45:04,VALID,1000.48,VALID,0,VALID,87.9924,VALID,0,VALID,23.6036,VALID,12,VALID,0.792188,
2009-07-18, 00:46:04,VALID,1000.48,VALID,0,VALID,88.206,VALID,0,VALID,23.5451,VALID,12,VALID,0.885938,
2009-07-18, 00:47:04,VALID,1000.53,VALID,0,VALID,88.2976,VALID,0,VALID,23.5274,VALID,17,VALID,1.11133,
2009-07-18, 00:48:04,VALID,1000.53,VALID,0,VALID,88.2976,VALID,0,VALID,23.4671,VALID,17,VALID,1.10781,
2009-07-18, 00:49:04,VALID,1000.54,VALID,0,VALID,88.4197,VALID,0,VALID,23.4458,VALID,17,VALID,1.04062,
2009-07-18, 00:50:04,VALID,1000.56,VALID,0,VALID,88.412,VALID,0,VALID,23.4475,VALID,17,VALID,0.973437,
2009-07-18, 00:51:04,VALID,1000.58,VALID,0,VALID,88.4502,VALID,0,VALID,23.428,VALID,17,VALID,0.915625,
2009-07-18, 00:52:04,VALID,1000.58,VALID,0,VALID,88.084,VALID,0,VALID,23.4493,VALID,18,VALID,0.839063,
2009-07-18, 00:53:04,VALID,1000.62,VALID,0,VALID,88.0916,VALID,0,VALID,23.4085,VALID,14,VALID,1.09453,
2009-07-18, 00:54:04,VALID,1000.62,VALID,0,VALID,88.29,VALID,0,VALID,23.4085,VALID,8,VALID,1.03359,
2009-07-18, 00:55:04,VALID,1000.66,VALID,0,VALID,88.0611,VALID,0,VALID,23.428,VALID,8,VALID,0.994531,
2009-07-18, 00:56:04,VALID,1000.66,VALID,0,VALID,87.8246,VALID,0,VALID,23.4688,VALID,8,VALID,1.11484,
2009-07-18, 00:57:04,VALID,1000.65,VALID,0,VALID,87.672,VALID,0,VALID,23.4475,VALID,8,VALID,0.901563,
2009-07-18, 00:58:04,VALID,1000.65,VALID,0,VALID,87.3515,VALID,0,VALID,23.4475,VALID,7,VALID,0.800391,
2009-07-18, 00:59:04,VALID,1000.66,VALID,0,VALID,86.8785,VALID,0,VALID,23.4085,VALID,11,VALID,1.17188,
2009-07-18, 01:00:04,VALID,1000.66,VALID,0,VALID,86.6649,VALID,0,VALID,23.389,VALID,18,VALID,1.09102,
2009-07-18, 01:01:04,VALID,1000.66,VALID,0,VALID,86.5275,VALID,0,VALID,23.389,VALID,27,VALID,0.945703,
2009-07-18, 01:02:04,VALID,1000.7,VALID,0,VALID,86.2605,VALID,0,VALID,23.4085,VALID,27,VALID,0.996484,
2009-07-18, 01:03:04,VALID,1000.67,VALID,0,VALID,86.0392,VALID,0,VALID,23.4085,VALID,26,VALID,0.879297,
2009-07-18, 01:04:04,VALID,1000.7,VALID,0,VALID,86.1766,VALID,0,VALID,23.428,VALID,26,VALID,0.864453,
2009-07-18, 01:05:04,VALID,1000.72,VALID,0,VALID,85.94,VALID,0,VALID,23.4475,VALID,20,VALID,0.914063,
2009-07-18, 01:06:04,VALID,1000.73,VALID,0,VALID,85.6349,VALID,0,VALID,23.4671,VALID,15,VALID,0.992188,
2009-07-18, 01:07:04,VALID,1000.71,VALID,0,VALID,85.3144,VALID,0,VALID,23.5256,VALID,14,VALID,0.654688,
2009-07-18, 01:08:04,VALID,1000.71,VALID,0,VALID,85.1771,VALID,0,VALID,23.5841,VALID,21,VALID,0.653125,
2009-07-18, 01:09:04,VALID,1000.68,VALID,0,VALID,84.7727,VALID,0,VALID,23.6232,VALID,16,VALID,0.539063,
2009-07-18, 01:10:04,VALID,1000.68,VALID,0,VALID,84.5286,VALID,0,VALID,23.6232,VALID,16,VALID,0.689062,
2009-07-18, 01:11:04,VALID,1000.68,VALID,0,VALID,84.9634,VALID,0,VALID,23.6036,VALID,16,VALID,0.279297,
2009-07-18, 01:12:04,VALID,1000.66,VALID,0,VALID,85.4823,VALID,0,VALID,23.6232,VALID,16,VALID,0.317187,
2009-07-18, 01:13:04,VALID,1000.67,VALID,0,VALID,85.5967,VALID,0,VALID,23.6054,VALID,16,VALID,0.244922,
2009-07-18, 01:14:04,VALID,1000.66,VALID,0,VALID,85.6806,VALID,0,VALID,23.6054,VALID,16,VALID,0.176953,
2009-07-18, 01:15:04,VALID,1000.69,VALID,0,VALID,85.6959,VALID,0,VALID,23.5451,VALID,16,VALID,0.243359,
2009-07-18, 01:16:04,VALID,1000.66,VALID,0,VALID,86.024,VALID,0,VALID,23.5469,VALID,16,VALID,0.223047,
2009-07-18, 01:17:04,VALID,1000.69,VALID,0,VALID,86.1842,VALID,0,VALID,23.5061,VALID,16,VALID,0.207031,
2009-07-18, 01:18:04,VALID,1000.67,VALID,0,VALID,86.3063,VALID,0,VALID,23.5061,VALID,16,VALID,0.221094,
2009-07-18, 01:19:04,VALID,1000.67,VALID,0,VALID,86.4894,VALID,0,VALID,23.4671,VALID,16,VALID,0.256641,
2009-07-18, 01:20:04,VALID,1000.67,VALID,0,VALID,87.0463,VALID,0,VALID,23.4688,VALID,16,VALID,0.306641,
2009-07-18, 01:21:04,VALID,1000.69,VALID,0,VALID,87.321,VALID,0,VALID,23.4493,VALID,16,VALID,0.334766,
2009-07-18, 01:22:04,VALID,1000.69,VALID,0,VALID,87.3515,VALID,0,VALID,23.4298,VALID,16,VALID,0.369922,
2009-07-18, 01:23:04,VALID,1000.7,VALID,0,VALID,87.5041,VALID,0,VALID,23.3908,VALID,16,VALID,0.407031,
2009-07-18, 01:24:04,VALID,1000.72,VALID,0,VALID,87.7254,VALID,0,VALID,23.35,VALID,325,VALID,0.676172,
2009-07-18, 01:25:04,VALID,1000.75,VALID,0,VALID,87.8322,VALID,0,VALID,23.35,VALID,323,VALID,0.699609,
2009-07-18, 01:26:04,VALID,1000.78,VALID,0,VALID,87.9924,VALID,0,VALID,23.3695,VALID,296,VALID,0.673828,
2009-07-18, 01:27:04,VALID,1000.75,VALID,0,VALID,88.0382,VALID,0,VALID,23.3695,VALID,295,VALID,0.686719,
2009-07-18, 01:28:04,VALID,1000.75,VALID,0,VALID,87.9543,VALID,0,VALID,23.3713,VALID,293,VALID,0.157031,
2009-07-18, 01:29:04,VALID,1000.77,VALID,0,VALID,87.9771,VALID,0,VALID,23.3305,VALID,293,VALID,0.214453,
2009-07-18, 01:30:04,VALID,1000.76,VALID,0,VALID,88.0382,VALID,0,VALID,23.3518,VALID,293,VALID,0,
2009-07-18, 01:31:04,VALID,1000.75,VALID,0,VALID,88.1297,VALID,0,VALID,23.3127,VALID,293,VALID,0,
2009-07-18, 01:32:04,VALID,1000.76,VALID,0,VALID,88.3052,VALID,0,VALID,23.2719,VALID,293,VALID,0.0234375,
2009-07-18, 01:33:04,VALID,1000.79,VALID,0,VALID,88.0534,VALID,0,VALID,23.2737,VALID,293,VALID,0.239844,
2009-07-18, 01:34:04,VALID,1000.79,VALID,0,VALID,88.5646,VALID,0,VALID,23.2152,VALID,293,VALID,0.359766,
2009-07-18, 01:35:04,VALID,1000.78,VALID,0,VALID,89.0758,VALID,0,VALID,23.1744,VALID,293,VALID,0.286328,
2009-07-18, 01:36:04,VALID,1000.81,VALID,0,VALID,89.3047,VALID,0,VALID,23.1762,VALID,293,VALID,0.235938,
2009-07-18, 01:37:04,VALID,1000.8,VALID,0,VALID,89.3963,VALID,0,VALID,23.1354,VALID,293,VALID,0.139844,
2009-07-18, 01:38:04,VALID,1000.83,VALID,0,VALID,89.4878,VALID,0,VALID,23.1566,VALID,293,VALID,0.127344,
2009-07-18, 01:39:04,VALID,1000.81,VALID,0,VALID,89.4802,VALID,0,VALID,23.1566,VALID,293,VALID,0.203125,
2009-07-18, 01:40:04,VALID,1000.81,VALID,0,VALID,89.3963,VALID,0,VALID,23.1566,VALID,293,VALID,0.126563,
2009-07-18, 01:41:04,VALID,1000.83,VALID,0,VALID,89.3047,VALID,0,VALID,23.1762,VALID,293,VALID,0,
2009-07-18, 01:42:04,VALID,1000.79,VALID,0,VALID,89.3276,VALID,0,VALID,23.1762,VALID,293,VALID,0,
2009-07-18, 01:43:04,VALID,1000.78,VALID,0,VALID,89.3886,VALID,0,VALID,23.1549,VALID,293,VALID,0,
2009-07-18, 01:44:04,VALID,1000.78,VALID,0,VALID,89.3276,VALID,0,VALID,23.1762,VALID,293,VALID,0.265234,
2009-07-18, 01:45:04,VALID,1000.8,VALID,0,VALID,89.0606,VALID,0,VALID,23.1762,VALID,293,VALID,0.484766,
2009-07-18, 01:46:04,VALID,1000.83,VALID,0,VALID,88.618,VALID,0,VALID,23.2152,VALID,297,VALID,0.4875,
2009-07-18, 01:47:04,VALID,1000.85,VALID,0,VALID,88.4044,VALID,0,VALID,23.2152,VALID,312,VALID,0.531641,
2009-07-18, 01:48:05,VALID,1000.87,VALID,0,VALID,88.3129,VALID,0,VALID,23.2329,VALID,330,VALID,0.683984,
2009-07-18, 01:49:05,VALID,1000.91,VALID,0,VALID,88.206,VALID,0,VALID,23.2719,VALID,337,VALID,1.03672,
2009-07-18, 01:50:05,VALID,1000.97,VALID,0,VALID,88.3815,VALID,0,VALID,23.311,VALID,337,VALID,1.03359,
2009-07-18, 01:51:05,VALID,1000.97,VALID,0,VALID,88.6028,VALID,0,VALID,23.311,VALID,337,VALID,0.64375,
2009-07-18, 01:52:05,VALID,1001,VALID,0,VALID,89.0606,VALID,0,VALID,23.2915,VALID,337,VALID,0.5125,
2009-07-18, 01:53:05,VALID,1001.01,VALID,0,VALID,88.8698,VALID,0,VALID,23.2719,VALID,339,VALID,0.768359,
2009-07-18, 01:54:05,VALID,1001.03,VALID,0,VALID,89.114,VALID,0,VALID,23.2719,VALID,11,VALID,1.11094,
2009-07-18, 01:55:05,VALID,1001.08,VALID,0,VALID,88.7325,VALID,0,VALID,23.2329,VALID,12,VALID,2.5832,
2009-07-18, 01:56:05,VALID,1001.08,VALID,0,VALID,88.5951,VALID,0,VALID,23.2542,VALID,19,VALID,2.30234,
2009-07-18, 01:57:05,VALID,1001.12,VALID,0,VALID,88.4883,VALID,0,VALID,23.2329,VALID,13,VALID,2.14922,
2009-07-18, 01:58:05,VALID,1001.11,VALID,0,VALID,88.1145,VALID,0,VALID,23.2737,VALID,30,VALID,1.92266,
2009-07-18, 01:59:05,VALID,1001.1,VALID,0,VALID,87.9466,VALID,0,VALID,23.2719,VALID,30,VALID,1.20586,
2009-07-18, 02:00:05,VALID,1001.09,VALID,0,VALID,87.794,VALID,0,VALID,23.3305,VALID,7,VALID,1.28437,
2009-07-18, 02:01:05,VALID,1001.1,VALID,0,VALID,88.4883,VALID,0,VALID,23.5274,VALID,26,VALID,2.57773,
2009-07-18, 02:02:05,VALID,1001.11,VALID,0,VALID,88.4426,VALID,0,VALID,23.7012,VALID,339,VALID,2.03047,
2009-07-18, 02:03:05,VALID,1001.12,VALID,0,VALID,87.9237,VALID,0,VALID,23.8768,VALID,351,VALID,2.19219,
2009-07-18, 02:04:05,VALID,1001.04,VALID,0,VALID,88.8851,VALID,0,VALID,24.0153,VALID,18,VALID,3.1582,
2009-07-18, 02:05:05,VALID,1001.14,VALID,0,VALID,88.0153,VALID,0,VALID,24.2104,VALID,337,VALID,2.24336,
2009-07-18, 02:06:05,VALID,1001.15,VALID,0,VALID,87.4583,VALID,0,VALID,24.2671,VALID,301,VALID,1.87461,
2009-07-18, 02:07:05,VALID,1001.17,VALID,0,VALID,87.5423,VALID,0,VALID,24.347,VALID,305,VALID,1.77109,
2009-07-18, 02:08:05,VALID,1001.2,VALID,0,VALID,87.6033,VALID,0,VALID,24.4037,VALID,322,VALID,1.80117,
2009-07-18, 02:09:05,VALID,1001.17,VALID,0,VALID,87.8246,VALID,0,VALID,24.4623,VALID,307,VALID,1.79883,
2009-07-18, 02:10:05,VALID,1001.2,VALID,0,VALID,87.9161,VALID,0,VALID,24.5209,VALID,354,VALID,1.57109,
2009-07-18, 02:11:05,VALID,1001.19,VALID,0,VALID,87.9695,VALID,0,VALID,24.5599,VALID,355,VALID,1.84648,
2009-07-18, 02:12:05,VALID,1001.2,VALID,0,VALID,87.9848,VALID,0,VALID,24.5404,VALID,343,VALID,2.49258,
2009-07-18, 02:13:05,VALID,1001.17,VALID,0.5,VALID,88.7554,VALID,0,VALID,24.3647,VALID,304,VALID,2.99102,
2009-07-18, 02:14:05,VALID,1001.18,VALID,0,VALID,89.5183,VALID,0,VALID,24.2281,VALID,341,VALID,2.47617,
2009-07-18, 02:15:05,VALID,1001.16,VALID,0.5,VALID,90.1287,VALID,0,VALID,24.111,VALID,337,VALID,3.88008,
2009-07-18, 02:16:05,VALID,1001.15,VALID,0,VALID,90.0753,VALID,0,VALID,24.0134,VALID,348,VALID,4.88047,
2009-07-18, 02:17:05,VALID,1001.08,VALID,0.5,VALID,90.1974,VALID,0,VALID,23.9744,VALID,349,VALID,4.88711,
2009-07-18, 02:18:05,VALID,1001.08,VALID,0,VALID,90.884,VALID,0,VALID,23.9354,VALID,350,VALID,2.79375,
2009-07-18, 02:19:05,VALID,1001.04,VALID,0.5,VALID,91.2045,VALID,0,VALID,23.8768,VALID,342,VALID,4.20273,
2009-07-18, 02:20:05,VALID,1001.02,VALID,1,VALID,91.5326,VALID,0,VALID,23.8183,VALID,354,VALID,3.46758,
2009-07-18, 02:21:05,VALID,1000.96,VALID,0,VALID,91.9217,VALID,0,VALID,23.7793,VALID,355,VALID,4.1375,
2009-07-18, 02:22:05,VALID,1001.02,VALID,0.5,VALID,92.1124,VALID,0,VALID,23.7811,VALID,352,VALID,3.75039,
2009-07-18, 02:23:05,VALID,1000.96,VALID,0,VALID,92.326,VALID,0,VALID,23.7616,VALID,353,VALID,3.45117,
2009-07-18, 02:24:05,VALID,1000.94,VALID,0.5,VALID,92.5244,VALID,0,VALID,23.7402,VALID,354,VALID,4.48242,
2009-07-18, 02:25:05,VALID,1000.91,VALID,0,VALID,92.41,VALID,0,VALID,23.7597,VALID,357,VALID,4.44414,
2009-07-18, 02:26:05,VALID,1000.78,VALID,0,VALID,92.2955,VALID,0,VALID,23.7597,VALID,351,VALID,5.18477,
2009-07-18, 02:27:05,VALID,1000.95,VALID,0,VALID,92.2192,VALID,0,VALID,23.7793,VALID,339,VALID,3.66836,
2009-07-18, 02:28:05,VALID,1001.01,VALID,0,VALID,92.4557,VALID,0,VALID,23.7988,VALID,339,VALID,2.32344,
2009-07-18, 02:29:05,VALID,1001.03,VALID,0,VALID,92.5244,VALID,0,VALID,23.7793,VALID,329,VALID,2.9957,
2009-07-18, 02:30:05,VALID,1001,VALID,0,VALID,92.5244,VALID,0,VALID,23.8201,VALID,11,VALID,2.5832,
2009-07-18, 02:31:05,VALID,1001.01,VALID,0,VALID,92.41,VALID,0,VALID,23.7988,VALID,344,VALID,2.73789,
2009-07-18, 02:32:05,VALID,1001.03,VALID,0,VALID,92.4863,VALID,0,VALID,23.7988,VALID,332,VALID,1.82656,
2009-07-18, 02:33:05,VALID,1001.05,VALID,0,VALID,92.4557,VALID,0,VALID,23.7988,VALID,358,VALID,1.94883,
2009-07-18, 02:34:05,VALID,1001.03,VALID,0,VALID,92.5168,VALID,0,VALID,23.7793,VALID,343,VALID,3.39922,
2009-07-18, 02:35:05,VALID,1001.01,VALID,0,VALID,92.5778,VALID,0,VALID,23.8183,VALID,339,VALID,2.59453,
2009-07-18, 02:36:05,VALID,1001.01,VALID,0,VALID,92.5702,VALID,0,VALID,23.8378,VALID,5,VALID,2.06367,
2009-07-18, 02:37:05,VALID,1001.02,VALID,0,VALID,92.6007,VALID,0,VALID,23.8183,VALID,341,VALID,2.05391,
2009-07-18, 02:38:05,VALID,1000.98,VALID,0,VALID,92.6083,VALID,0,VALID,23.8378,VALID,336,VALID,1.81172,
2009-07-18, 02:39:05,VALID,1000.97,VALID,0,VALID,92.6007,VALID,0,VALID,23.8378,VALID,8,VALID,2.27539,
2009-07-18, 02:40:05,VALID,1000.98,VALID,0,VALID,92.3642,VALID,0,VALID,23.8378,VALID,353,VALID,3.28594,
2009-07-18, 02:41:05,VALID,1000.95,VALID,0,VALID,92.3031,VALID,0.112286,VALID,23.8555,VALID,351,VALID,2.61758,
2009-07-18, 02:42:05,VALID,1000.91,VALID,0,VALID,92.1887,VALID,0,VALID,23.8555,VALID,11,VALID,4.00391,
2009-07-18, 02:43:05,VALID,1000.99,VALID,0,VALID,92.0285,VALID,0.112286,VALID,23.875,VALID,4,VALID,3.66875,
2009-07-18, 02:44:05,VALID,1000.95,VALID,0,VALID,91.9827,VALID,0,VALID,23.9159,VALID,1,VALID,4.09844,
2009-07-18, 02:45:05,VALID,1001,VALID,0,VALID,91.9598,VALID,0,VALID,23.914,VALID,351,VALID,3.19844,
2009-07-18, 02:46:05,VALID,1001.02,VALID,0,VALID,92.0056,VALID,0.112286,VALID,23.9531,VALID,340,VALID,3.33281,
2009-07-18, 02:47:05,VALID,1001.02,VALID,0,VALID,92.0971,VALID,0,VALID,23.9531,VALID,341,VALID,3.03477,
2009-07-18, 02:48:05,VALID,1001.01,VALID,0,VALID,91.8683,VALID,0,VALID,23.9531,VALID,346,VALID,3.87422,
2009-07-18, 02:49:05,VALID,1001.04,VALID,0,VALID,91.7309,VALID,0,VALID,23.9939,VALID,360,VALID,4.68984,
2009-07-18, 02:50:05,VALID,1001.01,VALID,0,VALID,91.5707,VALID,0,VALID,23.9921,VALID,7,VALID,3.46797,
2009-07-18, 02:51:05,VALID,1001.03,VALID,0,VALID,91.4944,VALID,0.112286,VALID,24.0116,VALID,353,VALID,2.70195,
2009-07-18, 02:52:05,VALID,1001.05,VALID,0,VALID,91.3952,VALID,0,VALID,24.0311,VALID,357,VALID,3.03711,
2009-07-18, 02:53:05,VALID,1001.02,VALID,0,VALID,91.4257,VALID,0,VALID,24.0116,VALID,20,VALID,2.85273,
2009-07-18, 02:54:05,VALID,1001.03,VALID,0,VALID,90.8001,VALID,0,VALID,24.0116,VALID,344,VALID,5.5125,
2009-07-18, 02:55:05,VALID,1000.98,VALID,0,VALID,90.35,VALID,0.112286,VALID,24.0701,VALID,1,VALID,5.31367,
2009-07-18, 02:56:05,VALID,1001.05,VALID,0,VALID,89.8083,VALID,0,VALID,24.1305,VALID,351,VALID,4.15859,
2009-07-18, 02:57:05,VALID,1000.94,VALID,0,VALID,88.8774,VALID,0,VALID,24.1696,VALID,340,VALID,6.56484,
2009-07-18, 02:58:05,VALID,1001.05,VALID,0,VALID,88.9614,VALID,0,VALID,24.2086,VALID,351,VALID,3.46563,
2009-07-18, 02:59:05,VALID,1001.03,VALID,0,VALID,89.0453,VALID,0,VALID,24.2281,VALID,339,VALID,4.4207,
2009-07-18, 03:00:05,VALID,1001.08,VALID,0,VALID,89.3963,VALID,0,VALID,24.2281,VALID,336,VALID,2.93945,
2009-07-18, 03:01:05,VALID,1001.08,VALID,0,VALID,89.6251,VALID,0,VALID,24.2104,VALID,334,VALID,2.67656,
2009-07-18, 03:02:05,VALID,1001.02,VALID,0,VALID,88.8546,VALID,0,VALID,24.15,VALID,318,VALID,4.32734,
2009-07-18, 03:03:05,VALID,1001,VALID,0,VALID,89.0911,VALID,0,VALID,24.1482,VALID,335,VALID,3.86289,
2009-07-18, 03:04:05,VALID,1001.01,VALID,0,VALID,88.351,VALID,0,VALID,24.1287,VALID,310,VALID,2.92656,
2009-07-18, 03:05:05,VALID,1001.09,VALID,0,VALID,87.2905,VALID,0,VALID,24.1305,VALID,338,VALID,5.47656,
2009-07-18, 03:06:05,VALID,1001.04,VALID,0,VALID,85.6577,VALID,0,VALID,24.1305,VALID,343,VALID,5.34883,
2009-07-18, 03:07:05,VALID,1000.98,VALID,0,VALID,83.0484,VALID,0,VALID,24.1519,VALID,345,VALID,6.6832,
2009-07-18, 03:08:05,VALID,1001.1,VALID,0,VALID,83.0942,VALID,0,VALID,24.1696,VALID,330,VALID,4.91914,
2009-07-18, 03:09:05,VALID,1001.04,VALID,0,VALID,82.4686,VALID,0,VALID,24.15,VALID,318,VALID,5.5375,
2009-07-18, 03:10:05,VALID,1000.97,VALID,0,VALID,83.201,VALID,0,VALID,24.15,VALID,350,VALID,5.60273,
2009-07-18, 03:11:05,VALID,1001.14,VALID,0,VALID,83.7046,VALID,0,VALID,24.1305,VALID,342,VALID,4.04688,
2009-07-18, 03:12:05,VALID,1001.01,VALID,0,VALID,82.1634,VALID,0,VALID,24.0915,VALID,354,VALID,4.50273,
2009-07-18, 03:13:05,VALID,1001.06,VALID,0,VALID,82.5067,VALID,0,VALID,24.0525,VALID,353,VALID,4.15469,
2009-07-18, 03:14:05,VALID,1001.1,VALID,0,VALID,82.995,VALID,0,VALID,23.9939,VALID,347,VALID,4.97227,
2009-07-18, 03:15:05,VALID,1001.1,VALID,0,VALID,83.1323,VALID,0,VALID,23.9957,VALID,328,VALID,3.0043,
2009-07-18, 03:16:05,VALID,1001.06,VALID,0,VALID,83.0484,VALID,0,VALID,23.9159,VALID,340,VALID,4.53359,
2009-07-18, 03:17:05,VALID,1001.04,VALID,0,VALID,81.7285,VALID,0,VALID,23.8963,VALID,330,VALID,5.28242,
2009-07-18, 03:18:05,VALID,1001.08,VALID,0,VALID,82.0108,VALID,0,VALID,23.8183,VALID,312,VALID,3.53789,
2009-07-18, 03:19:05,VALID,1001.12,VALID,0,VALID,82.4991,VALID,0,VALID,23.7402,VALID,328,VALID,4.89141,
2009-07-18, 03:20:05,VALID,1001.09,VALID,0,VALID,82.4152,VALID,0,VALID,23.6622,VALID,332,VALID,6.41875,
2009-07-18, 03:21:05,VALID,1001.2,VALID,0,VALID,83.6969,VALID,0,VALID,23.6036,VALID,330,VALID,3.61328,
2009-07-18, 03:22:05,VALID,1001.13,VALID,0,VALID,84.2081,VALID,0,VALID,23.5451,VALID,311,VALID,3.64453,
2009-07-18, 03:23:05,VALID,1001.2,VALID,0,VALID,84.643,VALID,0,VALID,23.4671,VALID,330,VALID,3.3793,
2009-07-18, 03:24:05,VALID,1001.18,VALID,0,VALID,85.0245,VALID,0,VALID,23.4085,VALID,333,VALID,4.0293,
2009-07-18, 03:25:05,VALID,1001.26,VALID,0,VALID,85.7722,VALID,0,VALID,23.35,VALID,319,VALID,2.25977,
2009-07-18, 03:26:05,VALID,1001.24,VALID,0,VALID,86.1384,VALID,0,VALID,23.311,VALID,342,VALID,2.07813,
2009-07-18, 03:27:05,VALID,1001.24,VALID,0,VALID,86.8632,VALID,0,VALID,23.2932,VALID,319,VALID,1.64844,
2009-07-18, 03:28:05,VALID,1001.31,VALID,0,VALID,87.115,VALID,0,VALID,23.2347,VALID,328,VALID,1.58086,
2009-07-18, 03:29:05,VALID,1001.29,VALID,0,VALID,87.4278,VALID,0,VALID,23.1744,VALID,332,VALID,1.31992,
2009-07-18, 03:30:05,VALID,1001.33,VALID,0,VALID,86.5504,VALID,0,VALID,23.1354,VALID,316,VALID,4.1207,
2009-07-18, 03:31:05,VALID,1001.34,VALID,0,VALID,86.848,VALID,0,VALID,23.1159,VALID,297,VALID,2.92617,
2009-07-18, 03:32:05,VALID,1001.37,VALID,0,VALID,87.1989,VALID,0,VALID,23.1159,VALID,325,VALID,1.41055,
2009-07-18, 03:33:05,VALID,1001.39,VALID,0,VALID,87.6338,VALID,0,VALID,23.0769,VALID,306,VALID,0.80625,
2009-07-18, 03:34:05,VALID,1001.41,VALID,0,VALID,87.5041,VALID,0,VALID,23.0591,VALID,304,VALID,1.73242,
2009-07-18, 03:35:05,VALID,1001.42,VALID,0,VALID,86.8098,VALID,0,VALID,22.9793,VALID,355,VALID,2.14102,
2009-07-18, 03:36:05,VALID,1001.41,VALID,0,VALID,87.6338,VALID,0,VALID,22.9403,VALID,303,VALID,1.72266,
2009-07-18, 03:37:05,VALID,1001.48,VALID,0,VALID,87.5499,VALID,0,VALID,22.9208,VALID,312,VALID,1.58672,
2009-07-18, 03:38:05,VALID,1001.48,VALID,0,VALID,87.4202,VALID,0,VALID,22.8835,VALID,278,VALID,1.13984,
2009-07-18, 03:39:05,VALID,1001.52,VALID,0,VALID,87.6414,VALID,0,VALID,22.8623,VALID,315,VALID,0.342187,
2009-07-18, 03:40:05,VALID,1001.57,VALID,0,VALID,87.3668,VALID,0,VALID,22.8445,VALID,326,VALID,0.957422,
2009-07-18, 03:41:05,VALID,1001.6,VALID,0,VALID,87.6033,VALID,0,VALID,22.8215,VALID,274,VALID,0.602734,
2009-07-18, 03:42:05,VALID,1001.64,VALID,0,VALID,87.321,VALID,0.112286,VALID,22.802,VALID,195,VALID,1.18711,
2009-07-18, 03:43:05,VALID,1001.66,VALID,0,VALID,87.6872,VALID,0.112286,VALID,22.8232,VALID,213,VALID,1.05977,
2009-07-18, 03:44:05,VALID,1001.72,VALID,0,VALID,87.0311,VALID,0,VALID,22.7825,VALID,225,VALID,1.16133,
2009-07-18, 03:45:05,VALID,1001.74,VALID,0,VALID,87.1226,VALID,0,VALID,22.7825,VALID,292,VALID,1.17617,
2009-07-18, 03:46:05,VALID,1001.73,VALID,0,VALID,87.054,VALID,0,VALID,22.7842,VALID,214,VALID,1.77383,